[[{"header":{"parameterUnit":"m.s-1","parameterCategory":1,"la1":30.2991,"la2":30.254,"lo1":-89.0895,"lo2":-89.0444,"dy":0.0017,"dx":0.0017,"nx":28,"ny":28,"refTime":"2025-07-08T09:00:00:Z","depth":0,"parameterNumber":2,"parameterNumberName":"U-component_of_WINDS"},"data":[0,0,0,0,0,0,0,0,0,0,0,0,0,0,0,0,0,0,0,0,0,0,0,0,0,0,0,0,0,0,0,0,0,0,0,0,0,0,0,0,0,0,0,0,0,0,0,0,0,0,0,0,0,0,0,0,0,0,2.8474,2.8475,0,2.857,2.8571,2.8572,2.8547,2.8545,2.8543,2.8541,2.864,2.8645,2.8649,0,0,0,0,0,0,0,0,0,0,0,0,0,2.8268,2.8272,2.8474,2.8475,2.8476,2.857,2.8571,2.8572,2.8547,2.8545,2.8542,2.854,2.8639,2.8644,2.8649,0,0,0,0,0,0,0,0,0,0,0,0,0,2.836,2.8273,2.8473,2.8475,2.8476,2.857,2.8571,2.8573,2.8547,2.8544,2.8542,2.8539,2.8637,2.8643,2.865,2.8749,0,0,2.867,2.8673,0,0,0,0,0,0,0,0,2.8355,2.8368,2.8473,2.8475,2.8476,2.8543,2.8535,2.8632,2.8548,2.852,2.8541,2.8538,2.861,2.8619,2.8643,2.8754,2.8758,2.8671,2.8675,2.8678,2.868,0,0,0,0,0,0,0,2.8349,2.8364,2.8512,2.8475,2.8477,2.847,2.848,2.8553,2.858,2.8522,2.8521,2.8532,2.8611,2.8637,2.8646,2.8759,2.8671,2.8677,2.8681,2.8683,2.8955,2.8958,0,0,0,0,0,0,2.8341,2.8358,2.8509,2.8515,2.8407,2.8477,2.8488,2.8525,2.8579,2.8585,2.8535,2.8531,2.8627,2.8638,2.8649,2.8768,2.8678,2.8684,2.8688,2.8952,2.8956,2.8959,0,0,0,0,0,0,2.8337,2.8355,2.8505,2.8436,2.8455,2.8483,2.8525,2.8528,2.8554,2.8589,2.8594,2.8557,2.8625,2.864,2.8724,2.8771,2.8687,2.8693,2.8948,2.8953,2.8958,2.9007,0,0,0,0,0,0,2.8331,2.8353,2.8391,2.8437,2.8459,2.8578,2.8528,2.8532,2.8566,2.8562,2.8611,2.8616,2.8624,2.8714,2.8731,2.8779,2.8698,2.8944,2.895,2.8956,2.9002,2.9013,2.9023,0,0,0,0,0,2.8324,2.8402,2.8393,2.8412,2.8506,2.8581,2.8593,2.8601,2.857,2.8608,2.863,2.8615,2.8763,2.8723,2.8742,2.8792,2.8941,2.8949,2.8956,2.8997,2.9011,2.9023,0,0,0,0,0,0,2.8361,2.8408,2.8399,2.8494,2.8534,2.8577,2.8625,2.8616,2.8665,2.8659,2.8666,2.8678,2.8764,2.8787,2.8741,2.8891,2.8848,2.8859,2.8873,2.8887,2.8897,2.889,2.8704,0,0,0,0,0,2.838,2.8436,2.8474,2.8554,2.8575,2.8597,2.863,2.8632,2.8673,2.869,2.8718,2.876,2.8816,2.8852,2.8906,2.9005,2.9015,2.9049,2.906,2.9068,2.9078,2.9132,2.9147,2.8983,2.8983,2.8983,0,0,2.842,2.8452,2.8488,2.8563,2.8594,2.8652,2.8611,2.8675,2.8719,2.87,2.8781,2.8804,2.885,2.8942,2.8984,2.8964,2.9126,2.9078,2.9084,2.9089,2.9141,2.9156,2.917,2.8988,2.8987,2.8987,0,0,2.8523,2.8553,2.8623,2.8655,2.8703,2.8717,2.8733,2.8778,2.8792,2.8874,2.8861,2.8913,2.901,2.9043,2.9073,2.9189,2.9177,2.9206,2.9263,2.9315,2.9328,2.934,2.9381,2.9395,2.9216,2.9216,2.9216,0,2.8567,2.8654,2.866,2.8725,2.8759,2.8744,2.8815,2.8846,2.8909,2.8932,2.8908,2.9029,2.9059,2.9159,2.9187,2.9212,2.9231,2.9201,2.9326,2.9337,2.9348,2.9387,2.9403,2.9219,2.9219,2.9218,2.9218,0,2.8706,2.8767,2.8818,2.8878,2.8917,2.8985,2.9002,2.904,2.9039,2.9056,2.9139,2.9175,2.9236,2.9259,2.9259,2.9359,2.9345,2.9324,2.928,2.9367,2.9404,2.9419,2.9224,2.9223,2.9222,2.9221,0,0,2.8835,2.8898,2.8916,2.8944,2.8995,2.9042,2.9109,2.9168,2.9201,2.9245,2.9302,2.9384,2.9364,2.9398,2.9401,2.9447,2.9536,2.942,2.9421,2.944,2.9649,2.9665,2.9682,2.9528,2.9531,2.9534,2.9645,0,2.8942,2.906,2.9067,2.9174,2.923,2.9218,2.9276,2.9314,2.9331,2.9382,2.9401,2.9459,2.9428,2.9449,2.9494,2.9516,2.9578,2.9508,2.9581,2.9584,2.957,2.9701,2.9719,2.9822,2.9659,2.9662,2.9664,0,2.9083,2.9131,2.9243,2.9286,2.931,2.9363,2.9417,2.9466,2.9508,2.9518,2.9556,2.9552,2.9621,2.9576,2.9671,2.9623,2.9653,2.9669,2.9673,2.968,2.9629,2.9712,2.9855,2.987,2.9687,2.9685,2.9683,0,2.9166,2.9258,2.9337,2.9361,2.9413,2.9451,2.9474,2.9514,2.9549,2.9597,2.9619,2.9675,2.9705,2.9748,2.976,2.9726,2.9855,2.981,2.9864,2.9864,2.9892,2.989,3.0042,2.9912,2.9912,2.9912,2.9911,0,2.9285,2.9354,2.9375,2.9424,2.9501,2.9508,2.9585,2.9606,2.9642,2.9694,2.9687,2.9736,2.9749,2.9801,2.9811,2.9888,2.9902,2.9912,2.9914,2.9912,2.9911,2.9932,2.9925,2.9916,2.9915,2.9914,2.9913,0,2.939,2.9407,2.9492,2.9535,2.9547,2.9602,2.9639,2.9685,2.9701,2.9768,2.9784,2.981,2.9871,2.9887,2.996,2.9967,3.0058,3.0053,3.0043,3.0043,3.0096,3.0091,3.0266,3.029,3.0145,3.0146,3.0147,0,2.9465,2.9518,2.9566,2.9601,2.9626,2.9682,2.9717,2.9727,2.9764,2.9817,2.9857,2.9917,2.9965,3.0063,3.0089,3.0144,3.0141,3.0199,3.0149,3.0146,3.0142,3.0138,3.0143,3.0208,3.0209,3.0211,3.0212,0,2.9596,2.9602,2.9653,2.9707,2.975,2.9793,2.9834,2.9863,2.9879,2.9921,2.9983,3.002,3.0095,3.0154,3.0211,3.0235,3.0226,3.0227,3.0242,3.0242,3.0234,3.0239,3.0068,3.0223,3.0222,3.0221,3.022,3.022,2.9689,2.9735,2.9776,2.9833,2.9865,2.9904,2.995,2.9972,3.0023,3.0084,3.0087,3.0154,3.0196,3.027,3.0298,3.0351,3.0334,3.0356,3.0362,3.0367,3.0372,3.0226,3.0361,3.0361,3.0361,3.0361,3.036,0,2.9819,2.9845,2.9897,2.9955,3.0,2.9988,3.0033,3.0071,3.0131,3.017,3.0217,3.0289,3.0346,3.0376,3.0433,3.047,3.0468,3.0485,3.0482,3.0488,3.0384,3.0365,3.0486,3.0486,3.0486,3.0486,3.0486,3.0486,2.9893,2.997,2.998,3.0074,3.0099,3.0165,3.0191,3.0227,3.0258,3.0338,3.0386,3.0405,3.044,3.05,3.0552,3.056,3.0581,3.0601,3.0606,3.0508,3.0495,3.0483,3.0465,3.0605,3.0605,3.0705,3.0706,3.0707]},{"header":{"parameterUnit":"m.s-1","parameterCategory":1,"la1":30.2991,"la2":30.254,"lo1":-89.0895,"lo2":-89.0444,"dy":0.0017,"dx":0.0017,"nx":28,"ny":28,"refTime":"2025-07-08T09:00:00:Z","depth":0,"parameterNumber":3,"parameterNumberName":"V-component_of_WINDS"},"data":[0,0,0,0,0,0,0,0,0,0,0,0,0,0,0,0,0,0,0,0,0,0,0,0,0,0,0,0,0,0,0,0,0,0,0,0,0,0,0,0,0,0,0,0,0,0,0,0,0,0,0,0,0,0,0,0,0,0,-1.824,-1.8241,0,-1.8286,-1.8287,-1.8287,-1.8275,-1.8274,-1.8273,-1.8272,-1.8319,-1.8321,-1.8323,0,0,0,0,0,0,0,0,0,0,0,0,0,-1.8141,-1.8143,-1.824,-1.8241,-1.8241,-1.8286,-1.8287,-1.8287,-1.8275,-1.8274,-1.8272,-1.8271,-1.8318,-1.832,-1.8323,0,0,0,0,0,0,0,0,0,0,0,0,0,-1.8185,-1.8143,-1.824,-1.824,-1.8241,-1.8286,-1.8287,-1.8288,-1.8275,-1.8274,-1.8272,-1.8271,-1.8317,-1.832,-1.8323,-1.8371,0,0,-1.8333,-1.8334,0,0,0,0,0,0,0,0,-1.8183,-1.8189,-1.824,-1.824,-1.8241,-1.8273,-1.8269,-1.8316,-1.8275,-1.8262,-1.8272,-1.827,-1.8305,-1.8309,-1.832,-1.8373,-1.8375,-1.8333,-1.8335,-1.8337,-1.8338,0,0,0,0,0,0,0,-1.818,-1.8187,-1.8258,-1.824,-1.8241,-1.8238,-1.8243,-1.8278,-1.8291,-1.8263,-1.8262,-1.8268,-1.8305,-1.8317,-1.8321,-1.8376,-1.8333,-1.8336,-1.8338,-1.8339,-1.847,-1.8471,0,0,0,0,0,0,-1.8176,-1.8184,-1.8257,-1.826,-1.8208,-1.8241,-1.8246,-1.8264,-1.829,-1.8293,-1.8269,-1.8267,-1.8313,-1.8318,-1.8323,-1.838,-1.8337,-1.834,-1.8341,-1.8468,-1.847,-1.8472,0,0,0,0,0,0,-1.8174,-1.8183,-1.8255,-1.8222,-1.8231,-1.8244,-1.8264,-1.8266,-1.8279,-1.8295,-1.8297,-1.828,-1.8312,-1.8319,-1.8359,-1.8382,-1.8341,-1.8344,-1.8467,-1.8469,-1.8471,-1.8495,0,0,0,0,0,0,-1.8171,-1.8182,-1.82,-1.8222,-1.8233,-1.829,-1.8266,-1.8268,-1.8284,-1.8282,-1.8305,-1.8308,-1.8311,-1.8355,-1.8362,-1.8385,-1.8346,-1.8465,-1.8468,-1.847,-1.8492,-1.8498,-1.8503,0,0,0,0,0,-1.8168,-1.8205,-1.8201,-1.821,-1.8256,-1.8292,-1.8297,-1.8301,-1.8286,-1.8304,-1.8315,-1.8307,-1.8378,-1.8359,-1.8367,-1.8392,-1.8463,-1.8467,-1.847,-1.849,-1.8497,-1.8503,0,0,0,0,0,0,-1.8185,-1.8208,-1.8204,-1.8249,-1.8269,-1.8289,-1.8312,-1.8308,-1.8332,-1.8329,-1.8332,-1.8337,-1.8379,-1.839,-1.8367,-1.8439,-1.8418,-1.8424,-1.8431,-1.8437,-1.8442,-1.8438,-1.8349,0,0,0,0,0,-1.8194,-1.8221,-1.824,-1.8278,-1.8288,-1.8299,-1.8315,-1.8316,-1.8336,-1.8344,-1.8357,-1.8377,-1.8404,-1.8421,-1.8447,-1.8494,-1.8499,-1.8515,-1.8521,-1.8525,-1.8529,-1.8555,-1.8562,-1.8484,-1.8484,-1.8483,0,0,-1.8213,-1.8229,-1.8246,-1.8282,-1.8297,-1.8325,-1.8306,-1.8336,-1.8357,-1.8348,-1.8387,-1.8398,-1.842,-1.8465,-1.8485,-1.8475,-1.8552,-1.8529,-1.8532,-1.8535,-1.8559,-1.8567,-1.8573,-1.8486,-1.8486,-1.8485,0,0,-1.8261,-1.8277,-1.831,-1.8326,-1.8349,-1.8356,-1.8364,-1.8386,-1.8393,-1.8432,-1.8426,-1.8451,-1.8497,-1.8513,-1.8527,-1.8583,-1.8577,-1.8592,-1.8619,-1.8644,-1.865,-1.8655,-1.8675,-1.8682,-1.8596,-1.8596,-1.8596,0,-1.8282,-1.8324,-1.8328,-1.8359,-1.8375,-1.8369,-1.8403,-1.8418,-1.8448,-1.846,-1.8448,-1.8506,-1.8521,-1.8569,-1.8582,-1.8594,-1.8603,-1.8588,-1.8649,-1.8654,-1.8659,-1.8678,-1.8685,-1.8598,-1.8598,-1.8597,-1.8597,0,-1.8348,-1.8377,-1.8402,-1.8431,-1.845,-1.8483,-1.8492,-1.851,-1.851,-1.8518,-1.8559,-1.8576,-1.8605,-1.8617,-1.8617,-1.8665,-1.8658,-1.8648,-1.8627,-1.8668,-1.8686,-1.8693,-1.86,-1.8599,-1.8599,-1.8599,0,0,-1.8407,-1.8439,-1.8448,-1.8461,-1.8487,-1.851,-1.8543,-1.8571,-1.8587,-1.8609,-1.8636,-1.8675,-1.8666,-1.8682,-1.8684,-1.8706,-1.8749,-1.8694,-1.8694,-1.8703,-1.8803,-1.8809,-1.8818,-1.8746,-1.8747,-1.8748,-1.8801,0,-1.8458,-1.8514,-1.8519,-1.857,-1.8598,-1.8593,-1.8621,-1.864,-1.8649,-1.8673,-1.8683,-1.8711,-1.8697,-1.8707,-1.8728,-1.8739,-1.8769,-1.8736,-1.877,-1.8771,-1.8764,-1.8827,-1.8834,-1.8883,-1.8807,-1.8809,-1.881,0,-1.8524,-1.8547,-1.8601,-1.8623,-1.8635,-1.866,-1.8687,-1.8711,-1.8732,-1.8737,-1.8755,-1.8755,-1.8788,-1.8767,-1.8813,-1.879,-1.8804,-1.8812,-1.8814,-1.8817,-1.8792,-1.883,-1.8898,-1.8905,-1.882,-1.882,-1.8819,0,-1.8561,-1.8606,-1.8644,-1.8656,-1.8683,-1.8701,-1.8713,-1.8733,-1.875,-1.8774,-1.8785,-1.8812,-1.8827,-1.8848,-1.8854,-1.8838,-1.89,-1.8879,-1.8904,-1.8904,-1.8917,-1.8915,-1.8987,-1.8928,-1.8928,-1.8927,-1.8927,0,-1.8616,-1.8649,-1.8661,-1.8685,-1.8722,-1.8727,-1.8763,-1.8775,-1.8793,-1.8818,-1.8816,-1.884,-1.8847,-1.8873,-1.8878,-1.8915,-1.8922,-1.8927,-1.8928,-1.8926,-1.8926,-1.8935,-1.8932,-1.8929,-1.8929,-1.8929,-1.8928,0,-1.8663,-1.8673,-1.8714,-1.8736,-1.8743,-1.8769,-1.8788,-1.881,-1.8819,-1.8852,-1.8859,-1.8873,-1.8903,-1.8912,-1.8948,-1.8951,-1.8995,-1.8993,-1.8987,-1.8987,-1.9012,-1.9009,-1.9091,-1.9102,-1.9036,-1.9037,-1.9037,0,-1.8697,-1.8722,-1.8747,-1.8764,-1.8777,-1.8804,-1.8822,-1.8829,-1.8847,-1.8874,-1.8893,-1.8922,-1.8946,-1.8994,-1.9007,-1.9035,-1.9033,-1.906,-1.9037,-1.9035,-1.9033,-1.9031,-1.9033,-1.9064,-1.9065,-1.9065,-1.9066,0,-1.8756,-1.876,-1.8785,-1.8812,-1.8833,-1.8855,-1.8876,-1.889,-1.89,-1.892,-1.8951,-1.8969,-1.9006,-1.9035,-1.9063,-1.9076,-1.9072,-1.9073,-1.908,-1.9079,-1.9074,-1.9076,-1.8998,-1.9071,-1.907,-1.907,-1.907,-1.9069,-1.8797,-1.8819,-1.884,-1.8869,-1.8885,-1.8905,-1.8927,-1.8939,-1.8965,-1.8995,-1.8998,-1.9031,-1.9052,-1.9089,-1.9103,-1.9129,-1.9121,-1.9132,-1.9134,-1.9137,-1.9138,-1.9071,-1.9134,-1.9134,-1.9134,-1.9134,-1.9134,0,-1.8855,-1.8869,-1.8895,-1.8924,-1.8947,-1.8942,-1.8965,-1.8984,-1.9013,-1.9033,-1.9057,-1.9092,-1.9121,-1.9137,-1.9165,-1.9183,-1.9182,-1.919,-1.9188,-1.9191,-1.9144,-1.9134,-1.919,-1.919,-1.919,-1.919,-1.919,-1.919,-1.8888,-1.8925,-1.8932,-1.8977,-1.8991,-1.9023,-1.9036,-1.9055,-1.9071,-1.911,-1.9134,-1.9144,-1.9163,-1.9193,-1.9219,-1.9223,-1.9233,-1.9242,-1.9245,-1.92,-1.9194,-1.9189,-1.918,-1.9244,-1.9244,-1.929,-1.929,-1.929]}]]